ASA528 KLAS-KSFO

Flight info

Callsign ASA528
Flight time N/A
Altitude 32000
Route JOHKR5 KENNO RUSME DYAMD5
Aircraft B738/M-SDE2E3FGHIRWXY/LB1

Departure

Time 2026-04-30 22:56
Airport Harry Reid International Airport (KLAS)

Arrival

Time N/A
Airport San Francisco International Airport (KSFO)
Time Latitude Longitude Altitude Speed Heading
2026-04-30 22:25 36.08042 -115.12693 2064 ft 0 kts 90°
2026-04-30 22:42 36.08042 -115.12692 2064 ft 0 kts 90°
2026-04-30 22:45 36.08037 -115.12665 2063 ft 6 kts 112°
2026-04-30 22:46 36.07947 -115.12632 2062 ft 1 kts 182°
2026-04-30 22:47 36.07803 -115.12638 2062 ft 8 kts 183°
2026-04-30 22:47 36.07753 -115.12696 2064 ft 4 kts 243°
2026-04-30 22:48 36.07748 -115.12822 2069 ft 12 kts 270°
2026-04-30 22:49 36.07755 -115.13183 2084 ft 13 kts 270°
2026-04-30 22:49 36.07754 -115.13584 2091 ft 20 kts 269°
2026-04-30 22:50 36.07753 -115.14134 2093 ft 15 kts 270°
2026-04-30 22:51 36.07755 -115.14384 2095 ft 15 kts 272°
2026-04-30 22:51 36.07774 -115.14667 2096 ft 19 kts 275°
2026-04-30 22:52 36.07787 -115.14846 2098 ft 22 kts 275°
2026-04-30 22:52 36.07804 -115.15204 2100 ft 19 kts 271°
2026-04-30 22:53 36.07803 -115.15487 2102 ft 14 kts 270°
2026-04-30 22:53 36.07804 -115.15702 2106 ft 11 kts 270°
2026-04-30 22:53 36.07804 -115.15795 2110 ft 10 kts 270°
2026-04-30 22:54 36.07806 -115.16007 2119 ft 15 kts 270°
2026-04-30 22:55 36.07713 -115.16130 2131 ft 7 kts 182°
2026-04-30 22:55 36.07639 -115.16039 2131 ft 21 kts 91°
2026-04-30 22:56 36.07643 -115.14562 2099 ft 149 kts 89°
2026-04-30 22:56 36.07679 -115.10014 3762 ft 185 kts 88°
2026-04-30 22:57 36.07357 -115.06407 4348 ft 238 kts 99°
2026-04-30 22:57 36.06664 -115.02176 5479 ft 257 kts 99°
2026-04-30 22:58 36.05976 -114.97830 7170 ft 261 kts 98°
2026-04-30 22:59 36.04220 -114.91388 9442 ft 277 kts 131°
2026-04-30 22:59 35.98909 -114.88814 11740 ft 287 kts 191°